Time,TemperatureF,DewpointF,PressureIn,WindDirection,WindDirectionDegrees,WindSpeedMPH,WindSpeedGustMPH,Humidity,HourlyPrecipIn,Conditions,Clouds,dailyrainin,SolarRadiationWatts/m^2,SoftwareType,DateUTC
2013-04-14 00:12:00,32.0,32.0,-100.00,NE,43,0.0,0.0,98,0.00,,,0.38,0.000000,,2013-04-14 07:12:00,
2013-04-14 00:22:00,32.0,32.0,-100.00,NE,43,0.0,0.0,98,0.00,,,0.38,0.000000,,2013-04-14 07:22:00,
2013-04-14 00:32:00,32.0,32.0,-100.00,NE,43,0.0,0.0,98,0.00,,,0.38,0.000000,,2013-04-14 07:32:00,
2013-04-14 00:42:00,32.0,32.0,-100.00,NE,43,0.0,0.0,98,0.00,,,0.38,0.000000,,2013-04-14 07:42:00,
2013-04-14 00:52:00,31.0,31.0,-100.00,NNW,338,0.0,0.0,98,0.00,,,0.26,0.000000,,2013-04-14 07:52:00,
2013-04-14 01:22:00,31.0,31.0,-100.00,NNW,338,0.0,0.0,98,0.00,,,0.26,0.000000,,2013-04-14 08:22:00,
2013-04-14 01:32:00,31.0,31.0,-100.00,NNW,338,0.0,0.0,98,0.00,,,0.26,0.000000,,2013-04-14 08:32:00,
2013-04-14 01:42:00,31.0,31.0,-100.00,NNW,338,0.0,0.0,98,0.00,,,0.26,0.000000,,2013-04-14 08:42:00,
2013-04-14 01:52:00,31.0,31.0,-100.00,NNW,338,0.0,0.0,98,0.00,,,0.15,0.000000,,2013-04-14 08:52:00,
2013-04-14 02:12:00,31.0,31.0,-100.00,NNW,338,0.0,0.0,98,0.00,,,0.15,0.000000,,2013-04-14 09:12:00,
2013-04-14 02:22:00,31.0,31.0,-100.00,NNW,338,0.0,0.0,98,0.00,,,0.15,0.000000,,2013-04-14 09:22:00,
2013-04-14 02:32:00,31.0,31.0,-100.00,NNW,338,0.0,0.0,98,0.00,,,0.15,0.000000,,2013-04-14 09:32:00,
2013-04-14 02:42:00,31.0,31.0,-100.00,NNW,338,0.0,0.0,98,0.00,,,0.15,0.000000,,2013-04-14 09:42:00,
2013-04-14 02:52:00,31.0,31.0,-100.00,NNW,338,0.0,0.0,98,0.00,,,0.14,0.000000,,2013-04-14 09:52:00,
2013-04-14 03:12:00,31.0,31.0,-100.00,NNW,338,0.0,0.0,98,0.00,,,0.14,0.000000,,2013-04-14 10:12:00,
2013-04-14 03:22:00,31.0,31.0,-100.00,NNW,338,0.0,0.0,98,0.00,,,0.14,0.000000,,2013-04-14 10:22:00,
2013-04-14 03:32:00,31.0,31.0,-100.00,NNW,338,0.0,0.0,98,0.00,,,0.14,0.000000,,2013-04-14 10:32:00,
2013-04-14 03:42:00,31.0,31.0,-100.00,NNW,338,0.0,0.0,98,0.00,,,0.14,0.000000,,2013-04-14 10:42:00,
2013-04-14 03:52:00,31.0,31.0,-100.00,NNW,338,0.0,0.0,98,0.00,,,0.04,0.000000,,2013-04-14 10:52:00,
2013-04-14 04:12:00,31.0,31.0,-100.00,NNW,338,0.0,0.0,98,0.00,,,0.04,0.000000,,2013-04-14 11:12:00,
2013-04-14 04:22:00,31.0,31.0,-100.00,NNW,338,0.0,0.0,98,0.00,,,0.04,0.000000,,2013-04-14 11:22:00,
2013-04-14 04:32:00,31.0,31.0,-100.00,NNW,338,0.0,0.0,98,0.00,,,0.04,0.000000,,2013-04-14 11:32:00,
2013-04-14 04:42:00,31.0,31.0,-100.00,NNW,338,0.0,0.0,98,0.00,,,0.04,0.000000,,2013-04-14 11:42:00,
2013-04-14 05:21:00,31.0,31.0,-100.00,NNW,338,0.0,0.0,98,0.00,,,0.02,0.000000,,2013-04-14 12:21:00,
2013-04-14 05:32:00,31.0,31.0,-100.00,NNW,338,0.0,0.0,98,0.00,,,0.02,0.000000,,2013-04-14 12:32:00,
2013-04-14 05:42:00,31.0,31.0,-100.00,NNW,338,0.0,0.0,98,0.00,,,0.02,0.000000,,2013-04-14 12:42:00,
2013-04-14 05:51:00,31.0,31.0,-100.00,NNW,338,0.0,0.0,98,0.00,,,0.02,0.000000,,2013-04-14 12:51:00,
2013-04-14 05:52:00,31.0,31.0,-100.00,NNW,337,0.0,0.0,98,0.00,,,0.02,0.000000,,2013-04-14 12:52:00,
2013-04-14 06:22:00,31.0,31.0,-100.00,NNW,337,0.0,0.0,98,0.00,,,0.02,0.000000,,2013-04-14 13:22:00,
2013-04-14 06:32:00,31.0,31.0,-100.00,NNW,337,0.0,0.0,98,0.00,,,0.02,0.000000,,2013-04-14 13:32:00,
2013-04-14 06:42:00,31.0,31.0,-100.00,NNW,337,0.0,0.0,98,0.00,,,0.02,0.000000,,2013-04-14 13:42:00,
2013-04-14 06:52:00,31.0,31.0,-100.00,North,9,0.0,0.0,98,0.00,,,0.02,1.000000,,2013-04-14 13:52:00,
2013-04-14 07:12:00,31.0,31.0,-100.00,North,9,0.0,0.0,98,0.00,,,0.02,1.000000,,2013-04-14 14:12:00,
2013-04-14 07:22:00,31.0,31.0,-100.00,North,9,0.0,0.0,98,0.00,,,0.02,1.000000,,2013-04-14 14:22:00,
2013-04-14 07:32:00,31.0,31.0,-100.00,North,9,0.0,0.0,98,0.00,,,0.02,1.000000,,2013-04-14 14:32:00,
2013-04-14 07:42:00,31.0,31.0,-100.00,North,9,0.0,0.0,98,0.00,,,0.02,1.000000,,2013-04-14 14:42:00,
2013-04-14 07:52:00,34.0,32.0,-100.00,North,9,0.0,0.0,92,0.00,,,0.02,6.000000,,2013-04-14 14:52:00,
2013-04-14 08:12:00,34.0,32.0,-100.00,North,9,0.0,0.0,92,0.00,,,0.02,6.000000,,2013-04-14 15:12:00,
2013-04-14 08:22:00,34.0,32.0,-100.00,North,9,0.0,0.0,92,0.00,,,0.02,6.000000,,2013-04-14 15:22:00,
2013-04-14 08:33:00,34.0,32.0,-100.00,North,9,0.0,0.0,92,0.00,,,0.02,6.000000,,2013-04-14 15:33:00,
2013-04-14 08:43:00,34.0,32.0,-100.00,North,9,0.0,0.0,92,0.00,,,0.02,6.000000,,2013-04-14 15:43:00,
2013-04-14 08:52:00,37.0,31.0,-100.00,NE,39,0.0,0.0,79,0.00,,,0.02,16.000000,,2013-04-14 15:52:00,
2013-04-14 09:13:00,37.0,31.0,-100.00,NE,39,0.0,0.0,79,0.00,,,0.02,16.000000,,2013-04-14 16:13:00,
2013-04-14 09:22:00,37.0,31.0,-100.00,NE,39,0.0,0.0,79,0.00,,,0.02,16.000000,,2013-04-14 16:22:00,
2013-04-14 09:32:00,37.0,31.0,-100.00,NE,39,0.0,0.0,79,0.00,,,0.02,16.000000,,2013-04-14 16:32:00,
2013-04-14 09:43:00,37.0,31.0,-100.00,NE,39,0.0,0.0,79,0.00,,,0.02,16.000000,,2013-04-14 16:43:00,
2013-04-14 09:52:00,38.0,31.0,-100.00,West,276,0.0,2.0,76,0.00,,,0.02,35.000000,,2013-04-14 16:52:00,
2013-04-14 10:12:00,38.0,31.0,-100.00,West,276,0.0,2.0,76,0.00,,,0.02,35.000000,,2013-04-14 17:12:00,
2013-04-14 10:22:00,38.0,31.0,-100.00,West,276,0.0,2.0,76,0.00,,,0.02,35.000000,,2013-04-14 17:22:00,
2013-04-14 10:32:00,38.0,31.0,-100.00,West,276,0.0,2.0,76,0.00,,,0.02,35.000000,,2013-04-14 17:32:00,
2013-04-14 10:42:00,38.0,31.0,-100.00,West,276,0.0,2.0,76,0.00,,,0.02,35.000000,,2013-04-14 17:42:00,
2013-04-14 10:52:00,43.0,32.0,-100.00,NNE,29,0.0,3.0,65,0.18,,,0.19,236.000000,,2013-04-14 17:52:00,
2013-04-14 11:12:00,43.0,32.0,-100.00,NNE,29,0.0,3.0,65,0.18,,,0.19,236.000000,,2013-04-14 18:12:00,
2013-04-14 11:22:00,43.0,32.0,-100.00,NNE,29,0.0,3.0,65,0.18,,,0.19,236.000000,,2013-04-14 18:22:00,
2013-04-14 11:32:00,43.0,32.0,-100.00,NNE,29,0.0,3.0,65,0.18,,,0.19,236.000000,,2013-04-14 18:32:00,
2013-04-14 11:42:00,43.0,32.0,-100.00,NNE,29,0.0,3.0,65,0.18,,,0.19,236.000000,,2013-04-14 18:42:00,
2013-04-14 11:52:00,36.0,31.0,-100.00,South,185,4.0,8.0,81,0.18,,,0.37,312.000000,,2013-04-14 18:52:00,
2013-04-14 12:22:00,36.0,31.0,-100.00,South,185,4.0,8.0,81,0.18,,,0.37,312.000000,,2013-04-14 19:22:00,
2013-04-14 12:32:00,36.0,31.0,-100.00,South,185,4.0,8.0,81,0.18,,,0.37,312.000000,,2013-04-14 19:32:00,
2013-04-14 12:42:00,36.0,31.0,-100.00,South,185,4.0,8.0,81,0.18,,,0.37,312.000000,,2013-04-14 19:42:00,
2013-04-14 12:52:00,43.0,31.0,-100.00,NNW,346,3.0,6.0,63,0.03,,,0.39,504.000000,,2013-04-14 19:52:00,
2013-04-14 13:12:00,43.0,31.0,-100.00,NNW,346,3.0,6.0,63,0.03,,,0.39,504.000000,,2013-04-14 20:12:00,
2013-04-14 13:22:00,43.0,31.0,-100.00,NNW,346,3.0,6.0,63,0.03,,,0.39,504.000000,,2013-04-14 20:22:00,
2013-04-14 13:32:00,43.0,31.0,-100.00,NNW,346,3.0,6.0,63,0.03,,,0.39,504.000000,,2013-04-14 20:32:00,
2013-04-14 13:42:00,43.0,31.0,-100.00,NNW,346,3.0,6.0,63,0.03,,,0.39,504.000000,,2013-04-14 20:42:00,
2013-04-14 13:52:00,37.0,30.0,-100.00,NNE,29,2.0,7.0,77,0.00,,,0.39,464.000000,,2013-04-14 20:52:00,
2013-04-14 14:22:00,37.0,30.0,-100.00,NNE,29,2.0,7.0,77,0.00,,,0.39,464.000000,,2013-04-14 21:22:00,
2013-04-14 14:33:00,37.0,30.0,-100.00,NNE,29,2.0,7.0,77,0.00,,,0.39,464.000000,,2013-04-14 21:33:00,
2013-04-14 14:43:00,37.0,30.0,-100.00,NNE,29,2.0,7.0,77,0.00,,,0.39,464.000000,,2013-04-14 21:43:00,
2013-04-14 14:52:00,38.0,30.0,-100.00,SSW,193,0.0,5.0,74,0.00,,,0.39,189.000000,,2013-04-14 21:52:00,
2013-04-14 15:12:00,38.0,30.0,-100.00,SSW,193,0.0,5.0,74,0.00,,,0.39,189.000000,,2013-04-14 22:12:00,
2013-04-14 15:23:00,38.0,30.0,-100.00,SSW,193,0.0,5.0,74,0.00,,,0.39,189.000000,,2013-04-14 22:23:00,
2013-04-14 15:32:00,38.0,30.0,-100.00,SSW,193,0.0,5.0,74,0.00,,,0.39,189.000000,,2013-04-14 22:32:00,
2013-04-14 15:43:00,38.0,30.0,-100.00,SSW,193,0.0,5.0,74,0.00,,,0.39,189.000000,,2013-04-14 22:43:00,
2013-04-14 15:52:00,43.0,32.0,-100.00,WNW,288,0.0,3.0,65,0.00,,,0.39,414.000000,,2013-04-14 22:52:00,
2013-04-14 16:22:00,43.0,32.0,-100.00,WNW,288,0.0,3.0,65,0.00,,,0.39,414.000000,,2013-04-14 23:22:00,
2013-04-14 16:32:00,43.0,32.0,-100.00,WNW,288,0.0,3.0,65,0.00,,,0.39,414.000000,,2013-04-14 23:32:00,
2013-04-14 16:42:00,43.0,32.0,-100.00,WNW,288,0.0,3.0,65,0.00,,,0.39,414.000000,,2013-04-14 23:42:00,
2013-04-14 16:52:00,43.0,29.0,-100.00,North,353,1.0,5.0,57,0.00,,,0.39,380.000000,,2013-04-14 23:52:00,
2013-04-14 17:22:00,43.0,29.0,-100.00,North,353,1.0,5.0,57,0.00,,,0.39,380.000000,,2013-04-15 00:22:00,
2013-04-14 17:32:00,43.0,29.0,-100.00,North,353,1.0,5.0,57,0.00,,,0.39,380.000000,,2013-04-15 00:32:00,
2013-04-14 17:42:00,43.0,29.0,-100.00,North,353,1.0,5.0,57,0.00,,,0.39,380.000000,,2013-04-15 00:42:00,
2013-04-14 17:52:00,37.0,34.0,-100.00,NW,306,0.0,7.0,88,0.00,,,0.39,131.000000,,2013-04-15 00:52:00,
2013-04-14 18:12:00,37.0,34.0,-100.00,NW,306,0.0,7.0,88,0.00,,,0.39,131.000000,,2013-04-15 01:12:00,
2013-04-14 18:32:00,37.0,34.0,-100.00,NW,306,0.0,7.0,88,0.00,,,0.39,131.000000,,2013-04-15 01:32:00,
2013-04-14 18:42:00,37.0,34.0,-100.00,NW,306,0.0,7.0,88,0.00,,,0.39,131.000000,,2013-04-15 01:42:00,
2013-04-14 18:52:00,35.0,33.0,-100.00,WNW,300,0.0,2.0,92,0.00,,,0.39,25.000000,,2013-04-15 01:52:00,
2013-04-14 19:22:00,35.0,33.0,-100.00,WNW,300,0.0,2.0,92,0.00,,,0.39,25.000000,,2013-04-15 02:22:00,
2013-04-14 19:32:00,35.0,33.0,-100.00,WNW,300,0.0,2.0,92,0.00,,,0.39,25.000000,,2013-04-15 02:32:00,
2013-04-14 19:42:00,35.0,33.0,-100.00,WNW,300,0.0,2.0,92,0.00,,,0.39,25.000000,,2013-04-15 02:42:00,
2013-04-14 19:52:00,32.0,30.0,-100.00,NNE,14,0.0,2.0,93,0.00,,,0.39,7.000000,,2013-04-15 02:52:00,
2013-04-14 20:12:00,32.0,30.0,-100.00,NNE,14,0.0,2.0,93,0.00,,,0.39,7.000000,,2013-04-15 03:12:00,
2013-04-14 20:22:00,32.0,30.0,-100.00,NNE,14,0.0,2.0,93,0.00,,,0.39,7.000000,,2013-04-15 03:22:00,
2013-04-14 20:32:00,32.0,30.0,-100.00,NNE,14,0.0,2.0,93,0.00,,,0.39,7.000000,,2013-04-15 03:32:00,
2013-04-14 20:43:00,32.0,30.0,-100.00,NNE,14,0.0,2.0,93,0.00,,,0.39,7.000000,,2013-04-15 03:43:00,
2013-04-14 20:52:00,30.0,29.0,-100.00,NNE,17,0.0,1.0,96,0.00,,,0.39,0.000000,,2013-04-15 03:52:00,
2013-04-14 21:13:00,30.0,29.0,-100.00,NNE,17,0.0,1.0,96,0.00,,,0.39,0.000000,,2013-04-15 04:13:00,
2013-04-14 21:22:00,30.0,29.0,-100.00,NNE,17,0.0,1.0,96,0.00,,,0.39,0.000000,,2013-04-15 04:22:00,
2013-04-14 21:33:00,30.0,29.0,-100.00,NNE,17,0.0,1.0,96,0.00,,,0.39,0.000000,,2013-04-15 04:33:00,
2013-04-14 21:42:00,30.0,29.0,-100.00,NNE,17,0.0,1.0,96,0.00,,,0.39,0.000000,,2013-04-15 04:42:00,
2013-04-14 21:52:00,29.0,28.0,-100.00,NNE,30,0.0,0.0,96,0.00,,,0.39,0.000000,,2013-04-15 04:52:00,
2013-04-14 22:12:00,29.0,28.0,-100.00,NNE,30,0.0,0.0,96,0.00,,,0.39,0.000000,,2013-04-15 05:12:00,
2013-04-14 22:23:00,29.0,28.0,-100.00,NNE,30,0.0,0.0,96,0.00,,,0.39,0.000000,,2013-04-15 05:23:00,
2013-04-14 22:32:00,29.0,28.0,-100.00,NNE,30,0.0,0.0,96,0.00,,,0.39,0.000000,,2013-04-15 05:32:00,
2013-04-14 22:42:00,29.0,28.0,-100.00,NNE,30,0.0,0.0,96,0.00,,,0.39,0.000000,,2013-04-15 05:42:00,
2013-04-14 22:52:00,28.0,27.0,-100.00,WSW,251,0.0,1.0,96,0.00,,,0.39,0.000000,,2013-04-15 05:52:00,
2013-04-14 23:12:00,28.0,27.0,-100.00,WSW,251,0.0,1.0,96,0.00,,,0.39,0.000000,,2013-04-15 06:12:00,
2013-04-14 23:22:00,28.0,27.0,-100.00,WSW,251,0.0,1.0,96,0.00,,,0.39,0.000000,,2013-04-15 06:22:00,
2013-04-14 23:33:00,28.0,27.0,-100.00,WSW,251,0.0,1.0,96,0.00,,,0.39,0.000000,,2013-04-15 06:33:00,
2013-04-14 23:42:00,28.0,27.0,-100.00,WSW,251,0.0,1.0,96,0.00,,,0.39,0.000000,,2013-04-15 06:42:00,
2013-04-14 23:52:00,28.0,27.0,-100.00,SE,138,0.0,0.0,96,0.00,,,0.39,0.000000,,2013-04-15 06:52:00,